Вернуться в каталог

STARLINK-37206

АктивенСвязьVLEO
NORAD 68326·PAYLOAD·🇺🇸 United States

Запущен Mar 22, 2026 с Cape Canaveral Space Force Station

Loading…

Ближайшие Пролёты (ближайшие 24 часа)

TLE

СвежийSource: CelesTrak SupGP

Эпоха: Sep 14, 2026, 23:03 UTC

1 68326C 26059F   26257.96090278 -.00035276  00000+0 -10418-2 0  2577
2 68326  53.1595 187.4601 0001392  95.0363  36.5144 15.34420727    12

Отслеживайте STARLINK-37206 в реальном времени с AllMySat

Download on the App Store